Location: Kershaw
(34.5481°N, 80.5823°W)
Time: 15:17:05
(UTC+00:00)

A-11 Canister half - Visible Passes

Search period start: 03 October 2022 00:00
Search period end: 13 October 2022 00:00
Orbit: 1524 x 1684 km, 47.3° (Epoch: 03 October)

Date Brightness Start Highest point End Pass type
(mag) Time Alt. Az. Time Alt. Az. Time Alt. Az.
03 Oct 9.1 01:46:50 10° NW 01:56:13 59° NNE 01:56:36 59° NE visible
03 Oct 10.7 03:52:02 10° WNW 03:54:53 22° WNW 03:54:53 22° WNW visible
03 Oct 9.9 23:19:10 10° WNW 23:27:42 38° N 23:36:28 10° ENE visible
04 Oct 9.1 01:25:09 10° NW 01:34:28 57° NNE 01:35:58 52° ENE visible
04 Oct 10.4 03:30:19 10° WNW 03:34:15 28° WNW 03:34:15 28° WNW visible
05 Oct 9.2 01:03:28 10° NW 01:12:44 55° NNE 01:15:23 44° ENE visible
05 Oct 10.1 03:08:36 10° WNW 03:13:41 35° WNW 03:13:41 35° WNW visible
06 Oct 9.3 00:41:46 10° NW 00:50:59 53° NNE 00:54:51 36° ENE visible
06 Oct 9.7 02:46:53 10° WNW 02:53:08 45° WNW 02:53:08 45° WNW visible
07 Oct 9.3 00:20:05 10° NW 00:29:13 52° NNE 00:34:21 28° E visible
07 Oct 9.4 02:25:11 10° WNW 02:32:39 56° W 02:32:39 56° W visible
07 Oct 9.4 23:58:23 10° NW 00:07:29 50° NNE 00:13:55 21° E visible
08 Oct 9.1 02:03:29 10° WNW 02:12:13 68° WSW 02:12:13 68° WSW visible
08 Oct 9.4 23:36:41 10° NW 23:45:43 49° NNE 23:53:33 15° E visible
09 Oct 8.9 01:41:47 10° WNW 01:51:15 74° SW 01:51:51 71° SSW visible
09 Oct 11.1 03:49:00 10° W 03:50:10 13° W 03:50:10 13° W visible
09 Oct 9.5 23:14:59 10° NW 23:23:58 47° NNE 23:33:09 10° E visible
10 Oct 9.0 01:20:06 10° WNW 01:29:33 77° SW 01:31:34 60° SSE visible
10 Oct 10.9 03:27:03 10° W 03:29:53 17° W 03:29:53 17° W visible
11 Oct 9.0 00:58:25 10° NW 01:07:52 80° SW 01:11:22 46° SE visible
11 Oct 10.7 03:05:08 10° W 03:09:41 20° WSW 03:09:41 20° WSW visible
12 Oct 9.0 00:36:44 10° NW 00:46:11 84° SW 00:51:16 33° SE visible
12 Oct 10.5 02:43:14 10° WNW 02:49:36 24° WSW 02:49:36 24° WSW visible
